Location: Wien
(48.2082°N, 16.3738°E)
Time: 01:07:04
(UTC+02:00)

MOZHAYETS 4 - Visible Passes

Search period start: 25 April 2024 00:00
Search period end: 05 May 2024 00:00
Orbit: 654 x 670 km, 98.3° (Epoch: 24 April)

Date Brightness Start Highest point End Pass type
(mag) Time Alt. Az. Time Alt. Az. Time Alt. Az.
25 Apr 10.0 03:00:28 10° ESE 03:04:10 24° ENE 03:07:52 10° N visible
25 Apr 8.0 04:36:26 10° S 04:40:50 45° W 04:45:16 10° NNW visible
26 Apr 8.9 03:29:50 10° SE 03:34:10 43° ENE 03:38:32 10° N visible
26 Apr 8.9 05:07:32 10° SSW 05:11:15 24° W 05:15:00 10° NW visible
27 Apr 10.7 02:26:11 10° E 02:28:07 13° NE 02:30:04 10° NNE visible
27 Apr 7.8 03:59:42 10° SSE 04:04:18 82° ENE 04:08:55 10° NNW visible
28 Apr 10.2 02:54:29 10° ESE 02:57:57 22° ENE 03:01:26 10° NNE visible
28 Apr 7.9 04:30:04 10° S 04:34:32 52° W 04:39:03 10° NNW visible
29 Apr 9.2 03:23:41 10° SE 03:27:54 38° ENE 03:32:09 10° N visible
29 Apr 8.7 05:00:59 10° SSW 05:04:54 27° W 05:08:51 10° NW visible
30 Apr 10.8 02:20:38 10° ENE 02:21:54 11° NE 02:23:10 10° NE visible
30 Apr 8.0 03:53:24 10° SSE 03:57:59 71° ENE 04:02:34 10° N visible
01 May 10.3 02:48:27 10° ESE 02:51:40 19° ENE 02:54:54 10° NNE visible
01 May 7.8 04:23:38 10° S 04:28:10 60° WSW 04:32:44 10° NNW visible
02 May 9.4 03:17:29 10° SE 03:21:35 33° ENE 03:25:41 10° N visible
02 May 8.5 04:54:23 10° SSW 04:58:28 31° W 05:02:35 10° NNW visible
03 May 8.2 03:47:04 10° SSE 03:51:36 62° ENE 03:56:08 10° N visible
04 May 10.5 02:42:25 10° E 02:45:20 17° ENE 02:48:16 10° NNE visible
04 May 7.7 04:17:09 10° S 04:21:44 70° WSW 04:26:20 10° NNW visible
